User: anonymous   Login
Location: Unspecified
(0.0000°N, 0.0000°E)
Time: 12:29:02
(UTC+00:00)
Language:

TURKSAT 3U - Orbit

View from above orbital plane
View from above orbital plane
View from above satellite
View from above satellite

Ground track
Ground track

The orbit data is extracted from the following two-line orbital elements,

1 39152U 13018C   17204.84159381 +.00000182 +00000-0 +30778-4 0  9996
2 39152 097.9474 291.7173 0015488 285.0031 074.9466 14.80302018228990
Epoch (UTC): 23 July 2017 20:11:53
Eccentricity: 0.0015488
inclination: 97.9474°
perigee height: 617 km
apogee height: 639 km
right ascension of ascending node: 291.7173°
argument of perigee: 285.0031°
revolutions per day: 14.80302018
mean anomaly at epoch: 74.9466°
orbit number at epoch: 22899

The dashed part of the orbit path shows where the satellite is in the earth's shadow,  

DLR